Torna al catalogo

FENGYUN 1C DEB

AttivoSSO
NORAD 30753·DEBRIS·🇨🇳 China

Lanciato May 10, 1999 da Taiyuan Satellite Launch Center

Loading…

Prossimi Passaggi (prossime 24 ore)

TLE

AggiornatoSource: Space-Track

Epoca: Sep 14, 2026, 13:33 UTC

1 30753U 99025ATP 26257.56462440  .00001071  00000-0  58472-3 0  9994
2 30753  98.7865 296.3842 0053990 291.0022  68.5380 14.13458818  2486

Traccia FENGYUN 1C DEB in tempo reale con AllMySat

Download on the App Store